Overview Statistics Trail Chart Weather Telemetry Raw packets
 

This is the latest recevied weather packets stored in our database for station/object KC2GYU. If no packets are shown the sender has not sent any weather packets the latest 10 day(s).

<< 28 29 30 31 32 33 34 >>
Time Temp. Humidity Pressure Rain* Wind** Luminosity Snow
1777917843 20° C 68% 1013.8 hPa 0 mm - 549 W/m² -
1777917541 20° C 65% 1013.8 hPa 0 mm - 654 W/m² -
1777917237 20° C 66% 1014.2 hPa 0 mm - 658 W/m² -
1777916935 20° C 67% 1014.1 hPa 0 mm - 684 W/m² -
1777916633 20.56° C 65% 1013.9 hPa 0 mm - 687 W/m² -
1777916330 20.56° C 66% 1014 hPa 0 mm - 684 W/m² -
1777916026 20° C 68% 1013.9 hPa 0 mm - 687 W/m² -
1777915724 20° C 68% 1014.2 hPa 0 mm - 682 W/m² -
1777915420 20° C 67% 1014.1 hPa 0 mm - 694 W/m² -
1777915116 20° C 67% 1014.2 hPa 0 mm - 699 W/m² -
1777914813 20° C 68% 1014.3 hPa 0 mm - 698 W/m² -
1777914510 20° C 69% 1014.4 hPa 0 mm - 709 W/m² -
1777914207 20° C 68% 1014.3 hPa 0 mm - 707 W/m² -
1777913904 20.56° C 68% 1014.7 hPa 0 mm - 709 W/m² -
1777913600 20° C 68% 1014.7 hPa 0 mm - 712 W/m² -
1777913296 20° C 69% 1014.7 hPa 0 mm - 540 W/m² -
1777912994 20° C 68% 1014.5 hPa 0 mm - 696 W/m² -
1777912689 20.56° C 66% 1014.7 hPa 0 mm - 707 W/m² -
1777912386 20.56° C 69% 1014.3 hPa 0 mm - 709 W/m² -
1777912082 21.11° C 68% 1014.7 hPa 0 mm - 704 W/m² -
1777911777 20° C 69% 1014.6 hPa 0 mm - 697 W/m² -
1777911475 20° C 68% 1014.6 hPa 0 mm - 687 W/m² -
1777911172 20.56° C 68% 1014.5 hPa 0 mm - 679 W/m² -
1777910869 20.56° C 68% 1014.5 hPa 0 mm - 676 W/m² -
1777910565 21.11° C 66% 1014.9 hPa 0 mm - 673 W/m² -

* Rain latest hour (hover to see other rain measurements)
** Current wind speed in m/s (hover to see current wind gust speed)